sat.trackr.live / text

‹ back to catalog

STARLINK-36653

NORAD 67842 · 2026-033X

PAYLOAD ACTIVE UNKNOWN

§ Identity

Operator
Country
US
Launch date
2026-02-16
Launch site
AFETR
Launch vehicle
Mass (kg)
RCS (m²)

Purposes: comms

External: N2YO · Heavens-Above · Gunter

§ Orbital elements

Epoch: 2026-05-25T04:20:36.566592Z

Period
94.27 min
Inclination
43.0020°
Eccentricity
0.0001019
Mean motion
15.27588777 rev/d
Perigee alt
482.3 km
Apogee alt
483.7 km
Semi-major
6,861.2 km
B*
4.3476e-4
RAAN
194.9580°
Arg perigee
279.3199°
Mean anomaly
80.7537°
Rev number
1,637

§ Raw data

STARLINK-366531 67842U 26033X   26145.18097878  .00011724  00000+0  43476-3 0  99982 67842  43.0020 194.9580 0001019 279.3199  80.7537 15.27588777 16379

JSON: /api/v1/satellites/67842 · /tle

For live sub-satellite position, see the globe view (requires WebGL).

§ Visibility from observer

Set your observer location to see the next 7 days of passes ≥ 10°. The values pass through the URL so the page stays shareable.

No JS? Fill the form by hand. The geolocation button needs JavaScript.